Tracking 29892 objects as of 21-Nov-2024
HD Live streaming from Space Station
objects crossing your sky now

TITAN 3C TRANSTAGE DEB

Track TITAN 3C TRANSTAGE DEB now!
10-day predictions


NORAD ID: 1680
Int'l Code: 1965-082AT
Perigee: 669.8 km
Apogee: 698.8 km
Inclination: 32.3 °
Period: 98.3 minutes
Semi major axis: 7055 km
RCS: 2.2194 m2 (large)
Launch date: October 15, 1965
Source: United States (US)
Launch site: AIR FORCE EASTERN TEST RANGE (AFETR)

Note: This is SATELLITE DEBRIS
Your satellite tracking list
Your tracking list is empty




NASA's NSSDC Master Catalog

Two Line Element Set (TLE):
1 01680U 65082AT  24325.36149217  .00000805  00000-0  14084-3 0  9998
2 01680  32.2568 331.1321 0020574  89.1203 271.1802 14.64976252129423
Source of the keplerian elements: AFSPC